FW0428 Weather Reports


Display with metric or nautical units.
time (UTC)temp
F
wind
direction
speed
MPH
gust
MPH
rain 1hr
in
rain 24hr
in
rain mn
in
humidity
%
barometer
mb
20260509091550 69 142 0.0 0.0 0.00 0.00 0.00 92 1008.3
20260509074643 70 259 0.0 0.0 0.00 0.00 0.00 90 1009.4
20260509070028 70 257 0.0 1.0 0.00 0.00 0.00 89 1009.3
20260509064617 70 212 0.0 2.0 0.00 0.00 0.00 88 1009.2
20260509063043 70 252 0.0 1.0 0.00 0.00 0.00 88 1008.6
20260509061526 71 228 0.0 2.0 0.00 0.00 0.00 87 1009.2
20260509060106 71 267 0.0 0.0 0.00 0.00 0.00 87 1009.8
20260509054556 71 267 0.0 0.0 0.00 0.00 0.00 86 1010.1
20260509053005 71 271 0.0 0.0 0.00 0.00 0.00 86 1010.2
20260509051517 71 267 0.0 0.0 0.00 0.00 0.00 86 1010.0
20260509050109 71 266 0.0 0.0 0.00 0.00 0.00 86 1009.9
20260509040109 72 273 0.0 0.0 0.00 0.00 0.00 84 1009.1
20260509034636 72 255 0.0 1.0 0.00 0.00 0.00 84 1008.8
20260509024609 72 277 0.0 2.0 0.00 0.00 0.00 81 1008.4
20260509021554 73 211 0.0 1.0 0.00 0.00 0.00 80 1008.1
20260509020011 73 265 0.0 0.0 0.00 0.00 0.00 79 1008.0
20260509003157 75 250 0.0 0.0 0.00 0.00 0.00 72 1007.3
20260508234650 77 129 0.0 3.0 0.00 0.00 0.00 69 1007.2
20260508221519 79 298 0.0 2.0 0.00 0.00 0.00 62 1008.4
20260508220155 80 192 0.0 1.0 0.00 0.00 0.00 62 1008.3
20260508214655 78 90 0.0 3.0 0.00 0.00 0.00 62 1008.6
20260508211659 80 279 0.0 2.0 0.00 0.00 0.00 61 1008.4
20260508210159 80 43 0.0 2.0 0.00 0.00 0.00 61 1008.5
20260508204615 80 257 0.0 2.0 0.00 0.00 0.00 60 1008.8
20260508184700 78 243 1.0 4.0 0.00 0.00 0.00 58 1010.0
20260508183113 78 270 0.0 2.0 0.00 0.00 0.00 57 1010.4
20260508174614 77 119 0.0 3.0 0.00 0.00 0.00 61 1011.2
20260508164542 74 301 0.0 4.0 0.00 0.00 0.00 64 1012.5
20260508153031 70 287 1.0 4.0 0.00 0.00 0.00 70 1013.4
20260508150004 69 279 0.0 2.0 0.00 0.00 0.00 71 1013.9
20260508143023 67 250 1.0 2.0 0.00 0.00 0.00 73 1013.8
20260508114600 58 232 0.0 0.0 0.00 0.00 0.00 90 1013.1
20260508113110 58 232 0.0 0.0 0.00 0.00 0.00 90 1013.2
20260508103147 59 229 0.0 0.0 0.00 0.00 0.00 89 1013.7
20260508100059 59 180 0.0 0.0 0.00 0.00 0.00 87 1013.9